Location: Brahman Valley
(40.6513°N, 111.8855°W)
Time: 08:24:25
(UTC+00:00)

Tiros 1 despin weight - Pass Details

Date: 15 May 2021
Orbit: 594 x 641 km, 48.2° (Epoch: 22 June)

Event Time Altitude Azimuth Distance (km) Brightness Sun altitude
Rises 06:46:53 0° 295° (WNW) 2,942 ? -29.8°
Reaches altitude 10° 06:49:22 10° 304° (NW) 2,033 ? -29.9°
Maximum altitude 06:53:45 38° 13° (NNE) 982 ? -30.0°
Enters shadow 06:54:01 37° 22° (NNE) 989 ? -30.0°
Drops below altitude 10° 06:58:06 10° 82° (E) 2,024 - -30.1°
Sets 07:00:34 0° 90° (E) 2,927 - -30.2°
